Weather Roundup
Issued by NWS Springfield, MO

Home | Current Version | Previous Version | Text Only | Print | Product List | Glossary On
Versions: 1 2 3 4 5 6 7 8 9 10 11 12 13 14 15 16 17 18 19 20 21 22 23 24 25 26 27 28 29 30 31 32 33 34 35 36 37 38 39 40 41 42 43 44 45 46 47 48 49 50
000
NZUS99 KSGF 260307
HRRSGF

HOURLY WEATHER
NATIONAL WEATHER SERVICE SPRINGFIELD MO
1000 PM CDT TUE APR 25 2017

......SGF CWA......

CITY           SKY/WX    TMP DP  RH WIND       PRES   REMARKS
SPRINGFIELD    CLOUDY    72  61  68 W10       29.51R
JOPLIN         CLOUDY    71  62  73 S12       29.45S
WEST PLAINS    CLOUDY    69  52  54 S9        29.55R
ROLLA          MOCLDY    69  53  56 S13G25    29.50R
OSAGE BEACH    CLOUDY    72  56  57 SE6       29.49R

......SURROUNDING SGF CWA......

CITY           SKY/WX    TMP DP  RH WIND       PRES   REMARKS
CHANUTE        CLOUDY    62  60  93 N6        29.44F
PARSONS        CLOUDY    62  60  93 CALM      29.44F
COFFEYVILLE    LGT RAIN  63  62  97 CALM      29.44S
EMPORIA        CLOUDY    52  48  86 NW17G24   29.54R
GROVE OK       PTCLDY    68  63  83 CALM      29.46S
ROGERS AR      MOCLDY    71  62  73 SE9       29.49R
SILOAM SPRINGS PTCLDY    68  57  68 SE7       29.47F
HARRISON AR    CLOUDY    70  61  73 S8        29.51R
NEAR YELLVILLE PTCLDY   N/A N/A N/A SE5       29.48R

......KANSAS AND MISSOURI......

CITY           SKY/WX    TMP DP  RH WIND       PRES   REMARKS
KANSAS CTY INT LGT RAIN  55  50  83 NW14G22   29.52R
DOWNTOWN KC    LGT RAIN  62  52  69 NW13G24   29.49R
COLUMBIA       CLOUDY    72  56  57 SE6       29.46R
SEDALIA        MOCLDY    72  59  63 CALM      29.48R
ST JOSEPH      LGT RAIN  53  47  79 N17       29.54R
ST LOUIS       MOCLDY    75  49  39 S12       29.53R
SPIRIT OF STL  CLOUDY    72  52  49 S6        29.51R
KIRKSVILLE     CLOUDY    65  57  75 CALM      29.46R
WICHITA        CLOUDY    52  46  80 N14       29.54R
TOPEKA         CLOUDY    53  47  79 N12       29.55R
OLATHE         LGT RAIN  60  53  77 NW14G25   29.51R

......TENNESSEE......

CITY           SKY/WX    TMP DP  RH WIND       PRES   REMARKS
MEMPHIS        CLEAR     71  54  54 S8        29.62R
NASHVILLE      CLEAR     65  56  72 S5        29.70S

......ARKANSAS.......

CITY           SKY/WX    TMP DP  RH WIND       PRES   REMARKS
FAYETTEVILLE   PTCLDY    71  63  75 S8G21     29.47S
FT SMITH       CLOUDY    75  62  64 E5        29.46R
LITTLE ROCK    MOCLDY    72  61  68 S12       29.57R

......OKLAHOMA.......

CITY           SKY/WX    TMP DP  RH WIND       PRES   REMARKS
TULSA          LGT RAIN  74  66  76 S12       29.38R
PONCA CITY     PTCLDY    60  53  77 N15G23    29.46R
MCALESTER      MOCLDY    76  66  71 S8        29.44R
OKLAHOMA CITY  TSTM      64  61  90 VRB5G16   29.48R FOG

......IOWA............

CITY           SKY/WX    TMP DP  RH WIND       PRES   REMARKS
DES MOINES     LGT RAIN  53  49  86 NW16      29.48R
QUAD CITIES    CLOUDY    70  49  47 SE9       29.46S

......ILLINOIS........

CITY           SKY/WX    TMP DP  RH WIND       PRES   REMARKS
QUINCY         CLOUDY    73  49  42 S8        29.46R
CHICAGO        CLOUDY    69  52  54 S9        29.57R




USA.gov is the U.S. government's official web portal to all federal, state and local government web resources and services.